Location: Chacón
(10.5789°N, 66.9317°W)
Time: 04:15:27
(UTC+00:00)

Cosmos 962 Rocket - Pass Details

Date: 21 October 2025
Orbit: 950 x 998 km, 82.9° (Epoch: 17 November)

Event Time Altitude Azimuth Distance (km) Brightness Sun altitude
Exits shadow 09:21:07 19° 292° (WNW) 2,135 5.7 -14.4°
Maximum altitude 09:22:51 21° 270° (W) 2,013 5.5 -14.0°
Drops below altitude 10° 09:27:21 10° 223° (SW) 2,697 6.5 -12.9°
Sets 09:30:28 0° 207° (SSW) 3,635 7.3 -12.1°
